Weather History for Fairbanks, AK

Change the Weather History Date:

Monday, January 21, 2013

  Actual Average Record
Temperature  
Mean Temperature 1 °F -8 °F  
Max Temperature 11 °F 1 °F 47 °F (1961)
Min Temperature -10 °F -17 °F -61 °F (1906)
Degree Days  
Heating Degree Days 64 73  
Month to date heating degree days 1285 1537  
Since 1 July heating degree days 8309 7809  
Cooling Degree Days 0 0  
Month to date cooling degree days 0 0  
Year to date cooling degree days 0 0  
Moisture  
Dew Point 0 °F    
Average Humidity 77    
Maximum Humidity 87    
Minimum Humidity 58    
Precipitation  
Precipitation 0.01 in 0.02 in 0.53 in (1929)
Month to date precipitation 0.69 0.41  
Year to date precipitation 0.69 0.41  
Snow  
Snow 0.20 in 0.30 in 8.20 in (1933)
Month to date snowfall 8.1 7.3  
Since 1 July snowfall 38.0 45.2  
Snow Depth 19.00 in    
Sea Level Pressure  
Sea Level Pressure 30.15 in    
Wind  
Wind Speed 7 mph (North)    
Max Wind Speed 10 mph    
Max Gust Speed -    
Visibility 9 miles    
Events Snow    
T = Trace of Precipitation, MM = Missing Value Source: NWS Daily Summary

Daily Weather History Graph

Daily Weather History Graph

Search for Another Location

Airport:

Trip Planner

Search our weather history database for the weather conditions in past years. The results will help you decide how hot, cold, wet, or windy it might be!

Date:

Astronomy

Jan. 21, 2013 Rise Set
Actual Time 10:09 AM AKST 3:57 PM AKST
Civil Twilight 9:03 AM AKST 5:03 PM AKST
Nautical Twilight 7:59 AM AKST 6:07 PM AKST
Astronomical Twilight 7:01 AM AKST 7:05 PM AKST
Moon 11:30 AM AKST (1/21) 5:57 AM AKST (1/21)
Length of Visible Light 7h 59m
Length of Day
5h 48m
Waxing Gibbous, 76% of the Moon is Illuminated
Jan 21
Waxing Gibbous
Jan 26
Full
Feb 3
Last Quarter
Feb 9
New
Feb 17
First Quarter

Hourly Weather History & Observations

Time (AKST) Temp. Windchill Dew Point Humidity Pressure Visibility Wind Dir Wind Speed Gust Speed Precip Events Conditions
12:53 AM 10.9 °F 1.4 °F 7.0 °F 84% 30.14 in 1.8 mi North 5.8 mph - N/A Snow Light Snow
1:22 AM 10.0 °F 1.8 °F 6.1 °F 84% 30.10 in 2.5 mi North 4.6 mph - N/A Snow Light Snow
1:53 AM 10.9 °F 1.4 °F 6.1 °F 81% 30.15 in 5.0 mi North 5.8 mph - N/A Snow Light Snow
3:53 AM 10.9 °F 1.4 °F 6.1 °F 81% 30.16 in 9.0 mi North 5.8 mph - N/A Snow Light Snow
4:53 AM 10.9 °F 1.4 °F 5.0 °F 77% 30.17 in 10.0 mi North 5.8 mph - N/A   Overcast
5:53 AM 10.0 °F -0.9 °F 5.0 °F 80% 30.17 in 10.0 mi North 6.9 mph - N/A   Overcast
6:53 AM 10.0 °F -1.9 °F 3.9 °F 76% 30.17 in 10.0 mi North 8.1 mph - N/A   Overcast
7:53 AM 10.0 °F 0.4 °F 3.9 °F 76% 30.17 in 10.0 mi North 5.8 mph - N/A   Overcast
8:53 AM 10.0 °F -0.9 °F 3.9 °F 76% 30.18 in 10.0 mi North 6.9 mph - N/A   Mostly Cloudy
9:53 AM 9.0 °F -4.2 °F 3.0 °F 77% 30.18 in 10.0 mi North 9.2 mph - N/A   Mostly Cloudy
10:53 AM 9.0 °F -2.2 °F 3.0 °F 77% 30.18 in 10.0 mi North 6.9 mph - N/A   Mostly Cloudy
11:53 AM 9.0 °F -0.9 °F 1.9 °F 73% 30.18 in 10.0 mi North 5.8 mph - N/A   Mostly Cloudy
12:53 PM 9.0 °F -4.2 °F 1.0 °F 70% 30.18 in 10.0 mi North 9.2 mph - N/A   Mostly Cloudy
1:53 PM 9.0 °F -5.1 °F 1.0 °F 70% 30.18 in 10.0 mi North 10.4 mph - N/A   Mostly Cloudy
2:53 PM 9.0 °F -4.2 °F 1.0 °F 70% 30.16 in 10.0 mi North 9.2 mph - N/A   Mostly Cloudy
3:53 PM 10.0 °F -0.9 °F 1.9 °F 70% 30.14 in 10.0 mi North 6.9 mph - N/A   Mostly Cloudy
4:53 PM 6.1 °F -5.6 °F -0.0 °F 76% 30.14 in 10.0 mi North 6.9 mph - N/A   Mostly Cloudy
5:53 PM -2.9 °F -16.5 °F -7.1 °F 82% 30.13 in 10.0 mi NNE 6.9 mph - N/A   Partly Cloudy
6:53 PM -0.9 °F -14.1 °F -4.0 °F 87% 30.12 in 10.0 mi NNE 6.9 mph - N/A   Partly Cloudy
7:53 PM -5.1 °F -17.6 °F -9.0 °F 83% 30.12 in 10.0 mi NNE 5.8 mph - N/A   Partly Cloudy
8:53 PM -6.0 °F -18.6 °F -9.9 °F 83% 30.11 in 10.0 mi North 5.8 mph - N/A   Partly Cloudy
9:53 PM -8.0 °F -22.5 °F -11.9 °F 83% 30.10 in 10.0 mi NNE 6.9 mph - N/A   Partly Cloudy
10:53 PM -7.1 °F -21.4 °F -11.0 °F 83% 30.09 in 10.0 mi NNE 6.9 mph - N/A   Clear
11:53 PM -6.0 °F -22.6 °F -9.9 °F 83% 30.07 in 10.0 mi NNE 9.2 mph - N/A   Clear